{"data":{"norad_id":66218,"intl_designator":"2025-244N","name":"STARLINK-35722","alt_names":[],"object_type":"PAYLOAD","status":"ACTIVE","operator":null,"country":"US","launch_date":"2025-10-28","launch_site_code":"AFWTR","launch_vehicle":null,"mission":null,"orbit_class":"UNKNOWN","rcs_meters":null,"size_class":null,"mass_kg":null,"dimensions":null,"purposes":["comms"],"wikipedia_slug":null,"has_3d_model":false,"image_url":null,"decayed_at":null,"tle_current":{"epoch":"2026-09-20T19:24:09.694656Z","epoch_age_seconds":70071,"freshness":"FRESH","line1":"1 66218U 25244N   26263.80844554  .00018452  00000+0  55620-3 0  9997","line2":"2 66218  53.1584  40.0207 0000959 107.2728 252.8380 15.34382739 51586","mean_motion":15.34382739,"eccentricity":9.59e-5,"inclination_deg":53.1584,"raan_deg":40.0207,"arg_perigee_deg":107.2728,"mean_anomaly_deg":252.838,"bstar":0.0005562,"rev_number":5158,"period_min":93.848813819327,"perigee_km":462.09850251857,"apogee_km":463.41058551671,"semimajor_km":6840.8915440176,"source":"CELESTRAK","updated_at":"2026-09-21T09:00:35.842056Z"}}}